St. Johns, AZ

10:29 PM MST on October 16, 2017 (GMT -0700)
Saint Johns Industrial

Weather History for KSJN - March, 2013

Change the Weather History Date:

Monday, March 25, 2013

  Actual Average (KLSB) Record (KLSB)
Temperature  
Mean Temperature 40 °F -  
Max Temperature 61 °F 73 °F 73 °F (2015)
Min Temperature 18 °F 34 °F 28 °F (2016)
Degree Days  
Heating Degree Days 26    
Moisture  
Dew Point 6 °F    
Average Humidity 25    
Maximum Humidity 52    
Minimum Humidity 7    
Precipitation  
Precipitation 0.00 in - - ()
Sea Level Pressure  
Sea Level Pressure 30.04 in    
Wind  
Wind Speed 3 mph (SW)    
Max Wind Speed 9 mph    
Max Gust Speed 18 mph    
Visibility 10 miles    
Events Rain    
Averages and records for this station are not official NWS values.
T = Trace of Precipitation, MM = Missing Value Source: NWS Daily Summary

Daily Weather History Graph

Daily Weather History Graph

Search for Another Location

Airport or City:

Trip Planner

Search our weather history database for the weather conditions in past years. The results will help you decide how hot, cold, wet, or windy it might be!

Date:

Astronomy

Mar. 25, 2013 Rise Set
Actual Time 6:13 AM MST 6:33 PM MST
Civil Twilight 5:48 AM MST 6:58 PM MST
Nautical Twilight 5:19 AM MST 7:28 PM MST
Astronomical Twilight 4:49 AM MST 7:58 PM MST
Moon 5:10 PM MST (3/25) 4:55 AM MST (3/25)
Length of Visible Light 13h 09m
Length of Day
12h 19m
Waxing Gibbous, 97% of the Moon is Illuminated
Mar 25
Waxing Gibbous
Mar 27
Full
Apr 2
Last Quarter
Apr 10
New
Apr 18
First Quarter

Hourly Weather History & Observations

Time (MST) Temp. Windchill Dew Point Humidity Pressure Visibility Wind Dir Wind Speed Gust Speed Precip Events Conditions
12:54 AM 30.0 °F 26.5 °F 1.0 °F 29% 30.00 in 10.0 mi South 3.5 mph - N/A   Clear
1:54 AM 28.0 °F - -0.0 °F 30% 30.01 in 10.0 mi Calm Calm - N/A   Clear
2:54 AM 23.0 °F - -0.9 °F 35% 30.03 in 10.0 mi Calm Calm - N/A   Clear
3:54 AM 24.1 °F - -0.0 °F 35% 30.02 in 10.0 mi Calm Calm - N/A   Clear
4:54 AM 24.1 °F 17.0 °F 1.0 °F 37% 30.04 in 10.0 mi SE 5.8 mph - N/A   Clear
5:54 AM 19.9 °F - -0.0 °F 42% 30.08 in 10.0 mi Calm Calm - N/A   Clear
6:54 AM 21.0 °F - 1.0 °F 42% 30.11 in 10.0 mi Calm Calm - N/A   Clear
7:54 AM 32.0 °F - -0.0 °F 26% 30.11 in 10.0 mi Calm Calm - N/A   Clear
8:54 AM 37.0 °F - -0.0 °F 21% 30.14 in 10.0 mi Calm Calm - N/A   Clear
9:54 AM 46.0 °F - 1.0 °F 16% 30.11 in 10.0 mi Calm Calm - N/A   Clear
10:54 AM 48.9 °F - -0.0 °F 13% 30.09 in 10.0 mi Calm Calm - N/A   Clear
11:54 AM 54.0 °F - 1.9 °F 12% 30.06 in 10.0 mi WSW 9.2 mph - 0.00 in Rain Light Rain
12:54 PM 54.0 °F - 7.0 °F 15% 30.04 in 10.0 mi Variable 3.5 mph - 0.00 in   Clear
1:54 PM 55.9 °F - 7.0 °F 14% 30.02 in 10.0 mi Variable 5.8 mph 17.3 mph N/A   Clear
2:54 PM 57.9 °F - 8.1 °F 14% 30.01 in 10.0 mi WNW 6.9 mph 18.4 mph N/A   Clear
3:54 PM 57.9 °F - 9.0 °F 14% 30.00 in 10.0 mi NW 9.2 mph - N/A   Clear
4:54 PM 59.0 °F - 10.0 °F 14% 29.98 in 10.0 mi NNW 9.2 mph 17.3 mph N/A   Clear
5:54 PM 57.0 °F - 9.0 °F 15% 30.01 in 10.0 mi NW 6.9 mph - N/A   Clear
6:54 PM 52.0 °F - 9.0 °F 18% 30.04 in 10.0 mi North 6.9 mph - N/A   Clear
7:54 PM 44.1 °F - 8.1 °F 23% 30.04 in 10.0 mi Calm Calm - N/A   Clear
8:54 PM 41.0 °F 37.1 °F 10.0 °F 28% 30.06 in 10.0 mi South 5.8 mph - N/A   Clear
9:54 PM 39.9 °F 34.5 °F 9.0 °F 28% 30.04 in 10.0 mi South 8.1 mph - N/A   Clear
10:54 PM 39.9 °F 34.5 °F 10.0 °F 29% 30.03 in 10.0 mi South 8.1 mph - N/A   Clear
11:54 PM 41.0 °F 35.8 °F 10.9 °F 29% 30.00 in 10.0 mi SSE 8.1 mph - N/A   Clear